sat.trackr.live / text

‹ back to catalog

LEMUR-2-FURIAUS

NORAD 42840 · 2017-042R

PAYLOAD ACTIVE UNKNOWN

§ Identity

Operator
Country
US
Launch date
2017-07-14
Launch site
TYMSC
Launch vehicle
Mass (kg)
RCS (m²)

Purposes: earth_obs

External: N2YO · Heavens-Above · Gunter

§ Orbital elements

Epoch: 2026-05-24T22:13:28.360416Z

Period
94.16 min
Inclination
97.3771°
Eccentricity
0.0008566
Mean motion
15.29353071 rev/d
Perigee alt
471.9 km
Apogee alt
483.6 km
Semi-major
6,855.9 km
B*
5.3815e-4
RAAN
323.6829°
Arg perigee
140.5685°
Mean anomaly
219.6180°
Rev number
48,465

§ Raw data

LEMUR-2-FURIAUS1 42840U 17042R   26144.92602269  .00015276  00000+0  53815-3 0  99902 42840  97.3771 323.6829 0008566 140.5685 219.6180 15.29353071484651

JSON: /api/v1/satellites/42840 · /tle

For live sub-satellite position, see the globe view (requires WebGL).

§ Visibility from observer

Set your observer location to see the next 7 days of passes ≥ 10°. The values pass through the URL so the page stays shareable.

No JS? Fill the form by hand. The geolocation button needs JavaScript.

§ Radio — SatNOGS DB

ModeDescriptionDownlinkUplink
FM Downlink 402.700 MHz
FM Downlink 2 402.670 MHz
BPSK UHF Unknown 400.550 MHz

3 transmitters · refreshed weekly from db.satnogs.org